Temp
14 14 14 14 15 15 15 15 16 16 16 16 17 17 17 17 18 18 20 24 22 22 21 21 21 22 21 21 22 23 23 23 23 22 26 26 26 27 26 24 23 23 20 19 19
14 14 15 15 15 15 15 15 16 16 17 17 16 17 16 16 18 20 25 24 22 22 21 21 21 21 22 23 23 24 22 23 25 25 25 27 26 27 27 23 21 20 19 19 19
14 14 14 15 15 15 15 16 16 16 16 17 16 17 16 16 17 23 24 24 23 22 22 22 22 22 23 24 25 26 24 23 25 25 26 29 28 30 27 23 20 20 19 19 19
14 14 15 15 15 16 16 16 16 16 16 16 16 16 16 15 19 23 24 24 24 22 22 22 22 24 23 24 26 26 25 25 26 26 28 27 29 30 27 23 21 20 20 20 20
14 14 15 15 16 16 16 16 16 16 16 16 16 16 15 14 20 24 25 24 24 22 22 21 22 24 24 25 27 28 25 27 27 27 27 26 28 28 25 22 20 20 20 20 20
13 14 14 15 16 16 16 16 16 16 16 16 16 16 14 12 25 24 23 24 24 22 22 22 23 24 26 26 26 29 26 27 28 26 27 27 27 28 25 22 21 20 20 20 20
13 14 14 15 16 16 16 16 15 16 16 15 15 15 12 20 24 24 24 24 24 24 22 22 24 25 27 26 28 29 29 27 28 27 25 27 25 24 23 24 22 21 20 20 20
14 14 14 15 16 15 15 16 17 17 16 15 15 14 14 24 24 23 23 24 23 22 23 23 24 24 25 28 28 28 28 27 29 28 27 26 19 21 26 22 23 23 21 21 21
13 14 14 15 15 15 15 16 16 16 16 15 14 13 14 22 23 24 24 24 23 23 23 23 24 24 25 26 25 26 26 27 29 30 31 28 18 21 26 24 23 24 23 22 21
12 13 14 15 15 15 15 15 16 15 16 14 14 11 19 23 24 24 24 25 25 24 24 24 25 24 25 25 23 24 26 27 28 30 31 24 22 20 21 21 24 23 23 23 22
13 13 14 14 15 15 15 15 15 16 15 15 15 16 18 21 23 24 24 24 25 25 23 25 23 23 25 26 26 27 28 28 30 31 31 29 23 23 23 24 25 26 23 23 24
12 12 13 15 15 15 15 15 15 14 15 16 16 16 18 19 19 23 24 24 24 23 24 24 23 25 27 27 27 27 27 27 30 31 31 26 23 23 22 21 22 23 23 24 25
11 11 12 14 14 14 15 15 15 15 15 15 18 17 18 18 19 21 23 25 24 24 24 24 25 27 27 27 27 27 26 27 28 31 30 27 24 24 23 21 21 22 25 25 26
12 11 12 13 14 14 14 14 14 15 12 18 21 21 21 20 21 23 23 25 25 24 25 25 27 27 26 27 27 25 28 29 29 29 25 29 24 21 23 23 22 23 23 24 26
12 12 13 11 12 12 14 14 14 15 14 23 21 21 20 21 23 24 26 23 24 25 25 25 26 26 26 27 28 27 28 29 29 28 28 28 27 23 24 24 24 24 24 24 26
12 13 12 13 13 13 14 14 15 14 16 21 20 19 19 20 21 23 25 24 25 25 26 26 28 27 27 29 29 29 28 28 28 27 26 26 27 26 26 25 26 25 25 24 26
13 13 12 12 13 13 13 14 13 14 21 19 17 18 18 19 20 21 20 21 22 21 22 25 26 28 29 27 28 28 25 23 24 24 25 25 27 25 30 29 28 28 26 25 28
13 13 13 13 13 13 14 13 13 18 17 18 16 17 17 18 18 18 18 17 21 24 22 22 22 27 28 27 26 27 26 23 21 23 25 26 26 27 29 33 34 31 29 29 29
13 12 12 12 13 14 14 12 15 16 16 15 15 15 15 16 16 16 15 15 16 15 22 22 23 28 29 29 28 26 26 26 24 25 24 25 27 28 30 30 32 33 31 30 30
12 11 14 14 14 14 13 12 14 17 16 15 14 15 13 14 15 13 14 16 15 14 14 19 22 25 29 29 29 28 27 25 26 23 23 26 26 27 28 30 29 31 32 32 31
10 10 14 13 14 14 12 14 16 16 16 15 14 13 13 13 13 13 13 15 15 12 12 14 18 23 26 27 27 27 26 27 25 22 22 23 27 28 28 30 30 31 32 33 32
7 10 12 12 13 14 13 12 15 15 15 15 14 13 12 12 12 12 12 13 13 11 10 14 14 19 23 26 29 28 28 25 26 23 23 23 26 29 30 31 32 31 34 33 33
5 8 11 11 10 8 10 11 13 14 13 12 12 12 9 9 10 12 11 12 11 11 10 12 13 16 22 24 26 27 28 28 25 24 23 24 26 32 28 31 32 30 34 35 34
6 9 9 9 9 8 8 8 9 11 13 12 11 9 8 7 11 11 9 11 10 10 11 12 13 13 16 22 25 25 28 28 27 24 25 26 27 28 29 28 29 32 34 34 35
7 7 6 6 6 6 8 8 8 8 9 10 10 10 8 7 9 10 10 10 11 10 9 11 13 16 18 21 24 25 28 29 27 27 26 26 26 27 29 28 27 31 33 34 35
6 4 3 2 4 6 7 7 7 7 8 8 10 10 7 6 7 4 9 10 10 9 7 10 12 15 18 22 24 25 27 29 29 29 28 27 28 27 27 31 29 31 32 32 32
4 4 3 2 3 4 6 7 7 8 7 8 9 9 8 9 9 7 12 12 11 9 7 9 13 13 16 21 23 21 25 27 29 29 29 27 27 27 27 26 26 30 31 31 31
Height
1517 1514 1510 1507 1504 1500 1497 1494 1491 1488 1485 1482 1479 1478 1478 1476 1475 1472 1466 1469 1475 1479 1480 1484 1487 1492 1497 1496 1495 1494 1499 1501 1503 1502 1488 1480 1482 1480 1480 1487 1493 1498 1500 1513 1522
1517 1513 1509 1505 1502 1498 1495 1491 1488 1485 1482 1479 1477 1475 1474 1471 1469 1463 1459 1463 1470 1473 1477 1480 1484 1489 1492 1491 1492 1491 1496 1493 1484 1485 1487 1482 1486 1479 1484 1492 1499 1503 1512 1518 1523
1517 1513 1508 1504 1500 1496 1492 1488 1485 1481 1478 1476 1473 1472 1470 1469 1466 1451 1453 1454 1461 1468 1473 1477 1482 1486 1488 1487 1485 1483 1487 1484 1477 1479 1478 1476 1479 1479 1482 1494 1495 1503 1512 1519 1524
1517 1512 1508 1503 1499 1494 1490 1485 1481 1478 1475 1472 1470 1468 1467 1467 1465 1452 1452 1454 1456 1464 1470 1474 1477 1481 1483 1480 1477 1480 1478 1479 1476 1476 1476 1474 1472 1475 1476 1489 1496 1500 1512 1518 1523
1516 1511 1506 1502 1497 1492 1487 1483 1479 1475 1472 1469 1467 1465 1464 1464 1448 1450 1451 1453 1455 1459 1463 1468 1471 1474 1476 1474 1474 1472 1474 1472 1475 1477 1477 1478 1474 1476 1482 1490 1497 1505 1515 1520 1524
1515 1510 1504 1499 1494 1489 1484 1480 1475 1471 1468 1465 1463 1462 1462 1460 1443 1445 1448 1450 1452 1454 1459 1464 1465 1468 1470 1470 1469 1461 1466 1466 1468 1471 1474 1482 1485 1480 1489 1493 1501 1507 1514 1522 1525
1513 1508 1503 1498 1492 1487 1482 1477 1472 1467 1464 1462 1459 1458 1456 1440 1441 1443 1443 1447 1449 1450 1454 1458 1463 1466 1467 1465 1461 1461 1464 1466 1467 1465 1473 1486 1490 1496 1503 1492 1499 1508 1512 1521 1525
1512 1506 1501 1496 1490 1485 1479 1474 1468 1463 1459 1457 1455 1454 1444 1437 1437 1439 1442 1445 1448 1450 1454 1458 1461 1464 1463 1462 1458 1459 1459 1472 1451 1460 1464 1481 1509 1494 1490 1507 1501 1507 1512 1517 1521
1511 1505 1500 1494 1489 1484 1478 1471 1465 1457 1456 1454 1454 1452 1438 1434 1431 1433 1437 1442 1445 1450 1452 1456 1460 1461 1460 1461 1464 1456 1468 1460 1454 1448 1452 1463 1504 1487 1480 1489 1502 1505 1511 1515 1518
1510 1504 1498 1493 1488 1483 1477 1471 1464 1460 1457 1454 1455 1456 1434 1429 1431 1431 1435 1439 1443 1447 1452 1454 1457 1458 1453 1456 1471 1468 1462 1456 1455 1444 1444 1466 1480 1484 1483 1491 1494 1504 1510 1511 1513
1510 1504 1498 1492 1487 1482 1476 1470 1468 1463 1460 1461 1452 1444 1426 1428 1425 1425 1431 1436 1439 1443 1445 1445 1453 1446 1446 1445 1448 1449 1449 1450 1439 1433 1444 1449 1468 1476 1486 1488 1478 1487 1498 1504 1505
1509 1502 1496 1490 1486 1482 1478 1477 1477 1475 1446 1438 1434 1434 1426 1431 1434 1421 1428 1431 1432 1434 1438 1445 1437 1435 1439 1441 1445 1444 1449 1449 1434 1426 1432 1452 1470 1470 1467 1473 1473 1477 1486 1491 1498
1508 1501 1494 1488 1484 1481 1479 1478 1475 1471 1462 1421 1418 1421 1418 1425 1426 1421 1425 1424 1425 1430 1429 1433 1424 1431 1433 1437 1442 1441 1446 1443 1443 1427 1427 1449 1473 1476 1480 1485 1487 1477 1471 1479 1486
1506 1500 1493 1486 1486 1481 1478 1474 1472 1470 1469 1434 1417 1421 1422 1420 1421 1417 1418 1423 1424 1425 1425 1423 1422 1423 1428 1431 1433 1447 1429 1432 1431 1439 1460 1428 1481 1480 1470 1472 1479 1483 1472 1478 1482
1506 1500 1492 1488 1483 1480 1477 1473 1469 1469 1479 1419 1426 1427 1424 1426 1423 1407 1413 1417 1417 1418 1421 1411 1415 1420 1425 1421 1422 1430 1427 1429 1429 1439 1441 1438 1451 1459 1453 1452 1462 1467 1465 1467 1472
1504 1498 1489 1488 1484 1481 1479 1473 1469 1475 1467 1432 1434 1434 1431 1426 1421 1417 1410 1415 1416 1416 1409 1408 1407 1408 1411 1412 1415 1418 1426 1428 1427 1435 1458 1442 1443 1447 1445 1438 1436 1453 1455 1456 1463
1501 1495 1488 1486 1485 1482 1477 1474 1476 1474 1434 1439 1442 1442 1440 1435 1426 1425 1423 1416 1416 1426 1417 1410 1400 1399 1401 1410 1408 1414 1431 1460 1464 1457 1458 1434 1441 1436 1411 1410 1414 1425 1435 1448 1453
1497 1489 1486 1484 1483 1481 1482 1480 1483 1452 1450 1444 1449 1446 1443 1441 1436 1434 1430 1430 1407 1405 1415 1418 1419 1390 1389 1396 1409 1411 1417 1445 1472 1464 1450 1429 1444 1425 1400 1397 1399 1411 1419 1432 1441
1495 1486 1482 1483 1484 1485 1485 1483 1467 1459 1458 1457 1448 1450 1456 1452 1453 1444 1444 1437 1432 1431 1417 1412 1402 1381 1382 1385 1392 1405 1414 1409 1434 1428 1446 1434 1421 1405 1396 1398 1400 1403 1410 1419 1429
1495 1485 1484 1484 1485 1483 1483 1481 1468 1461 1461 1462 1466 1461 1463 1458 1457 1460 1452 1436 1438 1440 1438 1406 1409 1381 1374 1380 1377 1384 1393 1424 1419 1459 1460 1436 1431 1418 1404 1396 1397 1399 1402 1407 1416
1498 1490 1484 1482 1481 1479 1480 1470 1464 1461 1462 1463 1461 1462 1464 1463 1464 1466 1459 1446 1441 1440 1444 1428 1408 1380 1378 1371 1377 1386 1395 1395 1412 1429 1455 1458 1423 1386 1390 1383 1387 1388 1393 1400 1408
1502 1496 1486 1481 1479 1473 1472 1476 1466 1464 1463 1461 1460 1463 1465 1467 1466 1466 1466 1459 1455 1458 1453 1435 1423 1398 1375 1361 1361 1369 1380 1391 1411 1430 1424 1431 1414 1368 1363 1363 1371 1378 1384 1392 1401
1505 1496 1489 1485 1486 1489 1484 1480 1472 1467 1466 1467 1468 1467 1470 1473 1469 1463 1464 1463 1460 1460 1456 1445 1429 1415 1381 1375 1365 1368 1365 1373 1390 1402 1424 1432 1411 1369 1361 1350 1360 1371 1378 1386 1394
1508 1499 1495 1489 1494 1495 1491 1485 1480 1470 1469 1468 1469 1471 1472 1478 1463 1458 1464 1460 1459 1458 1454 1449 1427 1429 1414 1384 1369 1376 1362 1366 1382 1406 1410 1404 1396 1385 1369 1363 1363 1368 1375 1382 1388
1512 1508 1509 1501 1497 1498 1494 1491 1485 1480 1478 1472 1468 1466 1474 1474 1464 1458 1456 1456 1455 1455 1451 1450 1425 1408 1393 1376 1367 1365 1356 1361 1373 1381 1398 1394 1394 1385 1372 1369 1368 1369 1376 1381 1389
1515 1513 1511 1508 1504 1498 1492 1489 1486 1483 1482 1475 1468 1467 1471 1471 1468 1474 1455 1453 1451 1453 1457 1441 1425 1403 1382 1366 1362 1365 1352 1346 1358 1367 1377 1378 1379 1368 1366 1369 1372 1377 1380 1384 1390
1513 1511 1511 1507 1504 1500 1492 1488 1486 1483 1476 1474 1470 1467 1465 1459 1461 1456 1446 1444 1442 1449 1454 1449 1425 1414 1394 1369 1367 1382 1361 1357 1352 1355 1365 1382 1368 1366 1368 1370 1372 1378 1385 1390 1394
Wind_Speed
23 24 24 24 23 23 24 24 23 21 20 19 19 15 15 18 19 23 31 28 18 20 13 12 16 16 19 16 29 28 8 8 1 2 8 12 6 26 25 37 13 16 35 44 40
23 24 25 25 25 25 25 26 27 23 21 20 16 15 15 17 20 29 26 24 23 18 20 19 19 20 23 25 16 17 5 5 8 8 4 19 9 25 18 26 27 33 35 43 39
23 24 25 25 26 26 27 27 26 24 23 19 16 16 15 14 18 23 4 14 24 24 26 21 17 20 23 24 27 20 10 2 8 13 17 10 8 13 27 20 41 41 44 41 40
24 25 26 26 27 27 27 27 25 23 23 21 15 13 11 9 4 5 3 1 19 28 21 21 24 26 13 14 28 14 9 9 12 15 7 5 3 18 26 24 42 51 45 41 37
26 26 26 27 27 27 27 26 25 24 23 21 16 11 7 9 26 10 9 4 13 29 31 27 27 26 18 17 23 16 13 21 15 18 20 22 2 4 38 44 44 46 40 36 36
27 27 27 28 28 27 26 25 27 26 22 20 17 12 10 8 13 5 18 13 13 33 30 28 19 26 20 23 19 21 23 25 21 14 11 12 12 7 35 44 42 42 40 36 33
28 28 28 29 29 28 26 24 25 26 23 20 17 13 14 30 7 5 22 17 16 28 33 32 27 24 27 11 35 29 16 17 17 22 1 16 5 8 14 41 41 39 40 38 32
29 29 30 30 29 27 25 26 24 25 21 17 13 10 14 13 12 16 24 16 12 15 28 26 27 30 31 23 24 20 19 16 12 23 15 22 5 12 12 6 33 36 38 39 40
31 30 29 28 28 25 24 29 26 24 12 9 0 4 15 7 19 25 22 22 16 18 20 21 28 33 30 16 14 11 13 10 7 11 12 19 12 20 33 18 14 34 35 39 41
33 32 31 29 26 21 22 28 32 11 19 15 5 8 14 10 10 17 26 21 24 20 26 24 21 16 17 12 16 11 8 9 15 18 21 14 15 20 32 27 18 17 23 37 42
33 32 30 27 24 18 24 30 27 6 17 24 27 26 49 19 15 20 23 25 23 27 17 25 12 22 21 18 9 14 17 12 14 17 14 10 19 25 25 27 29 29 26 27 40
35 35 33 28 20 14 19 23 20 22 28 36 39 40 45 37 19 15 21 24 23 19 15 13 25 15 15 17 18 19 20 17 15 18 12 19 23 21 23 17 33 35 31 33 38
38 37 36 29 15 12 14 23 24 25 11 26 13 19 26 17 23 38 15 33 14 20 21 21 9 19 21 19 21 19 19 19 14 13 10 16 9 14 8 10 19 27 45 42 44
40 38 37 32 9 17 14 29 28 22 5 9 6 15 18 13 8 27 31 27 18 20 21 23 20 21 24 22 21 18 21 21 21 11 5 11 8 12 17 17 16 33 40 39 42
39 36 32 18 24 20 29 34 25 20 5 9 17 13 33 11 20 16 30 28 21 19 15 25 24 25 22 24 19 18 11 19 21 15 9 7 6 11 25 23 21 32 43 44 43
39 38 26 13 13 18 22 27 23 2 5 8 13 20 23 23 23 26 17 30 20 20 23 19 21 20 24 21 21 16 15 17 18 14 13 9 11 7 22 24 25 35 46 51 47
38 38 14 10 14 19 26 27 4 4 12 10 16 20 18 14 22 23 21 12 14 15 24 20 25 26 24 20 18 19 12 7 9 9 11 10 6 8 10 11 30 34 51 55 54
38 32 12 8 12 17 20 9 5 10 12 18 17 16 12 22 17 24 24 18 17 23 8 21 22 27 21 22 19 19 20 7 11 6 10 8 8 8 11 2 23 46 59 53 54
42 25 15 6 6 15 16 4 5 9 12 15 19 13 19 21 15 21 20 18 11 25 21 12 28 11 27 18 22 12 19 11 4 6 2 5 8 12 18 10 8 16 44 51 52
36 29 8 8 8 17 5 10 15 9 11 11 10 9 16 17 17 15 11 13 26 26 28 13 22 23 20 24 22 19 11 13 9 9 11 9 9 14 13 17 10 12 26 41 50
28 16 5 22 16 15 7 13 16 17 16 9 13 10 13 16 13 15 11 24 10 25 24 20 6 26 18 23 27 12 12 15 6 6 6 5 11 11 17 21 18 16 23 37 36
18 6 24 27 11 10 6 12 22 17 13 9 7 9 10 12 11 14 18 16 27 25 21 18 8 7 28 20 15 18 19 11 11 13 4 4 10 5 10 26 22 15 27 34 40
16 15 18 20 6 8 14 18 22 14 13 12 10 8 4 12 8 10 13 17 18 17 10 15 6 6 12 12 20 21 22 20 6 6 10 8 11 4 11 18 27 17 25 34 35
9 5 13 14 19 12 12 11 18 28 20 4 4 6 8 16 10 9 6 7 20 22 30 25 12 15 11 13 6 8 20 22 17 8 8 12 6 9 7 9 8 18 18 33 35
5 5 7 5 11 16 13 13 15 12 16 16 3 5 4 8 11 7 6 16 9 14 16 12 13 14 20 21 15 15 21 22 20 18 13 9 8 9 5 8 8 16 18 25 28
8 3 4 12 15 16 10 8 16 12 15 13 14 11 4 4 6 18 9 7 3 8 13 18 10 17 10 11 11 11 15 29 21 21 14 10 11 9 9 16 17 23 23 23 24
4 10 8 5 7 8 5 9 15 20 11 23 19 18 11 16 19 35 18 17 12 9 11 19 12 10 5 6 5 6 11 8 19 19 20 15 9 6 8 11 13 26 22 21 22
Wind_Direction
2 359 356 353 351 347 344 339 336 328 323 318 311 301 286 283 276 270 259 248 244 228 195 197 214 199 210 222 234 236 256 283 342 279 296 52 17 115 128 138 149 191 150 157 146
360 356 353 350 347 344 340 338 338 333 324 321 313 302 295 285 282 270 275 263 231 210 204 198 207 203 221 218 233 232 236 236 212 231 233 149 204 133 124 107 104 112 135 149 156
358 355 351 347 345 342 339 336 335 333 329 323 313 303 291 286 298 281 271 242 205 208 212 211 207 203 223 230 234 245 226 210 259 274 273 230 179 153 134 128 137 137 145 154 158
357 354 350 347 345 342 338 334 333 333 330 325 313 306 285 253 246 191 133 142 194 198 202 204 221 209 219 222 226 218 206 206 278 268 297 279 108 149 142 151 147 147 153 157 165
356 352 349 346 344 341 337 334 331 330 325 323 309 300 259 235 244 202 219 277 202 193 202 202 224 225 214 228 237 226 194 212 243 241 258 280 224 273 124 141 145 148 160 165 168
355 352 349 348 347 343 339 335 328 324 322 322 304 285 236 246 291 237 238 249 222 192 200 204 219 225 221 232 237 241 193 211 184 258 224 228 9 105 131 140 146 153 161 171 173
354 352 350 348 347 345 345 338 328 319 315 312 301 273 237 246 232 274 232 239 234 207 197 205 207 230 230 241 239 251 255 226 208 209 208 192 68 352 54 147 150 159 162 175 179
354 351 349 348 349 351 356 346 336 328 313 305 290 245 251 285 215 215 197 223 220 213 212 210 214 239 253 246 257 244 251 228 221 173 191 179 151 170 103 40 155 164 169 175 185
353 351 348 346 348 353 2 358 341 336 335 323 50 243 264 286 224 202 189 207 207 206 222 216 221 232 247 238 254 259 247 230 239 205 176 191 153 207 180 194 198 171 177 181 185
352 350 347 345 347 354 358 2 349 5 21 359 241 288 262 248 241 220 203 197 200 210 206 215 222 228 235 224 225 235 232 235 218 238 210 148 176 184 188 186 170 174 191 185 189
350 346 344 342 340 355 348 1 3 335 314 281 262 262 280 273 294 198 200 211 216 208 203 214 218 220 217 233 230 242 244 224 240 225 221 188 153 174 203 190 183 190 209 213 195
350 345 344 342 338 353 353 358 349 311 303 284 266 258 258 265 285 250 201 196 218 205 203 210 231 220 213 224 236 237 247 258 235 247 196 136 162 187 173 177 187 203 207 219 194
351 347 342 339 337 359 354 344 338 331 298 302 269 239 251 251 238 256 250 204 210 212 206 212 223 222 210 220 226 235 241 247 252 254 135 134 143 166 194 261 245 184 201 202 190
353 346 338 335 342 345 343 341 334 332 300 286 177 11 3 227 270 249 243 222 227 224 219 226 231 209 224 219 224 220 237 248 258 262 181 171 161 199 176 210 212 213 202 213 191
347 345 332 340 322 332 343 334 330 321 315 24 16 2 1 19 326 209 231 241 217 226 206 222 207 230 217 225 220 235 226 242 254 263 268 218 207 202 197 210 199 214 200 210 200
342 343 328 344 324 352 330 332 326 256 245 21 27 360 357 343 328 329 294 230 253 237 245 235 238 222 234 218 226 225 227 242 245 244 249 240 197 201 199 209 199 207 201 204 203
341 340 314 333 340 351 349 330 300 241 341 2 18 357 338 337 325 353 338 302 213 221 239 248 228 232 226 232 218 213 219 230 238 228 233 239 212 213 227 196 194 194 192 202 193
341 337 321 292 340 358 331 315 251 281 351 354 358 329 359 351 340 338 335 333 324 226 237 234 245 216 220 220 222 210 218 201 211 207 230 238 249 255 254 215 198 182 186 190 188
346 349 344 311 320 333 318 282 288 1 14 351 343 1 340 332 336 341 340 296 7 352 241 247 240 241 225 217 224 209 216 214 250 219 216 194 251 257 262 259 216 202 176 187 187
350 349 16 16 317 311 285 262 286 40 8 341 329 333 325 332 335 341 328 305 341 353 346 286 257 258 228 220 239 216 175 217 220 208 223 235 218 231 234 246 221 219 196 185 186
358 324 294 347 323 289 256 269 330 352 350 326 318 320 315 316 344 323 297 314 336 343 333 313 259 256 251 210 218 216 211 201 185 180 188 206 236 223 218 224 217 212 189 187 179
353 316 340 345 328 312 359 349 338 336 312 334 345 346 345 333 319 311 303 292 324 339 322 301 290 274 242 249 244 213 213 205 202 225 219 194 256 309 319 206 210 203 212 181 186
323 293 337 356 18 356 343 336 325 350 20 28 5 348 21 313 296 287 320 320 323 337 312 319 341 312 261 249 257 229 196 216 176 147 218 226 261 262 320 189 184 179 194 208 178
322 317 349 345 7 2 345 322 329 334 329 26 326 28 17 320 293 288 311 319 329 308 307 308 264 230 270 264 227 254 211 203 210 200 206 227 238 289 21 64 133 173 168 187 182
339 356 360 321 334 322 310 309 319 327 338 330 253 235 178 277 313 319 300 308 319 341 304 298 277 264 265 268 277 276 212 195 207 213 202 222 186 220 157 92 85 118 170 159 187
314 348 329 297 310 319 314 309 309 308 345 311 322 13 344 261 301 287 256 282 268 325 310 303 282 309 289 285 281 299 292 194 199 211 222 233 225 188 167 123 96 91 92 100 127
290 271 313 277 307 313 301 326 312 312 311 316 311 306 279 269 254 257 269 253 246 226 271 293 317 323 298 322 296 298 245 272 207 195 211 216 217 161 129 131 129 108 96 95 91